OBJECT K

基本信息
目录编号:
61903
目录名称:
OBJECT K
国际标识:
2024-205K
轨道中心:
EARTH
物体状态:
在轨
发射日期:
2024-11-11 UTC
国别:
中国 (CN)
轨道信息
数据来源: 国际轨道数据
星历时间: 2026-09-04T04:13:36+0800
半长轴: 6846.119km
偏心率: 0.001064
轨道倾角: 97.405°
近地点辐角: 115.472°
升交点赤经: 323.795°
平近点角: 244.763°
近地点: 460.697km
远地点: 475.267km
周期: 93.956分钟
每日圈数: 15.326258
详细信息
发射场:
JSC
轨道高度:
LEO
数据来源:
AOE Working Group
参考系:
TEME
时间系统:
UTC
历元类型:
SGP4
2D轨道图
3D轨道图
轨道高度分析图
轨道倾角分析图
轨道综合分析图
查看轨道综合分析图